King Salmon, AK

3:27 AM AKST on January 24, 2018 (GMT -0900)
King Salmon

Weather History for PAKN - June, 2013

Change the Weather History Date:

Sunday, June 9, 2013

  Actual Average Record
Temperature  
Mean Temperature 51 °F 50 °F  
Max Temperature 57 °F 60 °F 81 °F (1935)
Min Temperature 44 °F 40 °F 32 °F (1956)
Degree Days  
Heating Degree Days 14 15  
Month to date heating degree days 113 143  
Since 1 June heating degree days 113 143  
Since 1 July heating degree days 11098 10614  
Cooling Degree Days 0 0  
Month to date cooling degree days 0 0  
Year to date cooling degree days 0 0  
Since 1 June cooling degree days 0 0  
Moisture  
Dew Point 41 °F    
Average Humidity 0    
Maximum Humidity 0    
Minimum Humidity 0    
Precipitation  
Precipitation 0.00 in 0.05 in 0.58 in (1981)
Month to date precipitation 0.12 0.45  
Year to date precipitation 6.48 5.15  
Snow  
Snow 0.00 in 0.00 in - ()
Month to date snowfall 0.0 0.0  
Since 1 June snowfall 0.0  
Since 1 July snowfall 75.3 46.6  
Snow Depth 0.00 in    
Sea Level Pressure  
Sea Level Pressure 30.37 in    
Wind  
Wind Speed 13 mph (SSW)    
Max Wind Speed 18 mph    
Max Gust Speed 24 mph    
Visibility 10 miles    
Events      
T = Trace of Precipitation, MM = Missing Value Source: NWS Daily Summary

Daily Weather History Graph

Daily Weather History Graph

Search for Another Location

Airport or City:

Trip Planner

Search our weather history database for the weather conditions in past years. The results will help you decide how hot, cold, wet, or windy it might be!

Date:

Astronomy

Jun. 09, 2013 Rise Set
Actual Time 5:19 AM AKDT 11:33 PM AKDT
Civil Twilight 4:01 AM AKDT 12:52 AM AKDT
Nautical Twilight Sun does not rise Sun does not rise
Astronomical Twilight Sun does not rise Sun does not rise
Moon 6:46 AM AKDT (6/9) No Moon Set
Length of Visible Light 20h 50m
Length of Day
18h 13m
New Moon, 1% of the Moon is Illuminated
Jun 9
New Moon
Jun 16
First Quarter
Jun 23
Full
Jun 29
Last Quarter
Jul 7
New

Hourly Weather History & Observations

Time (AKDT) Temp. Windchill Dew Point Humidity Pressure Visibility Wind Dir Wind Speed Gust Speed Precip Events Conditions
12:51 AM 44.6 °F 38.4 °F 42.8 °F 93% 30.30 in 10.0 mi South 12.7 mph - N/A   Partly Cloudy
12:54 AM 45.0 °F 38.9 °F 43.0 °F 93% 30.30 in 10.0 mi South 12.7 mph - N/A   Partly Cloudy
1:05 AM 44.6 °F 38.4 °F 42.8 °F 93% 30.30 in 10.0 mi South 12.7 mph - N/A   Partly Cloudy
1:25 AM 44.6 °F 37.8 °F 42.8 °F 93% 30.30 in 10.0 mi South 15.0 mph - N/A   Mostly Cloudy
1:54 AM 45.0 °F 38.2 °F 43.0 °F 93% 30.31 in 10.0 mi South 15.0 mph - N/A   Overcast
2:54 AM 45.0 °F 39.3 °F 43.0 °F 93% 30.32 in 10.0 mi South 11.5 mph - N/A   Overcast
3:54 AM 45.0 °F 37.6 °F 43.0 °F 93% 30.33 in 10.0 mi South 17.3 mph - N/A   Overcast
4:54 AM 44.1 °F 37.4 °F 43.0 °F 96% 30.33 in 10.0 mi South 13.8 mph - N/A   Overcast
5:54 AM 44.1 °F 37.4 °F 42.1 °F 93% 30.35 in 10.0 mi South 13.8 mph - N/A   Overcast
6:54 AM 44.1 °F 38.1 °F 42.1 °F 93% 30.36 in 10.0 mi South 11.5 mph - N/A   Overcast
7:54 AM 45.0 °F 38.5 °F 42.1 °F 90% 30.37 in 10.0 mi South 13.8 mph - N/A   Overcast
8:38 AM 44.6 °F 38.8 °F 42.8 °F 93% 30.37 in 10.0 mi SSW 11.5 mph - N/A   Overcast
8:54 AM 46.0 °F 40.6 °F 41.0 °F 83% 30.38 in 10.0 mi South 11.5 mph - N/A   Overcast
9:54 AM 46.0 °F 40.6 °F 41.0 °F 83% 30.39 in 10.0 mi SSW 11.5 mph - N/A   Overcast
10:54 AM 46.9 °F - 41.0 °F 80% 30.40 in 10.0 mi SSW 10.4 mph - N/A   Overcast
11:54 AM 48.0 °F - 41.0 °F 77% 30.40 in 10.0 mi SSW 13.8 mph 18.4 mph N/A   Overcast
12:54 PM 51.1 °F - 41.0 °F 68% 30.40 in 10.0 mi SSW 10.4 mph - N/A   Unknown
1:01 PM 51.8 °F - 41.0 °F 67% 30.40 in 10.0 mi SSW 9.2 mph - N/A   Overcast
1:54 PM 53.1 °F - 41.0 °F 64% 30.40 in 10.0 mi South 11.5 mph - N/A   Mostly Cloudy
2:54 PM 55.9 °F - 41.0 °F 57% 30.39 in 10.0 mi SSW 11.5 mph 19.6 mph N/A   Scattered Clouds
3:54 PM 55.0 °F - 41.0 °F 59% 30.39 in 10.0 mi SW 12.7 mph 20.7 mph N/A   Partly Cloudy
4:54 PM 55.0 °F - 39.9 °F 57% 30.40 in 10.0 mi WSW 13.8 mph 21.9 mph N/A   Partly Cloudy
5:54 PM 54.0 °F - 39.9 °F 59% 30.39 in 10.0 mi SW 15.0 mph 20.7 mph N/A   Partly Cloudy
6:54 PM 52.0 °F - 39.9 °F 63% 30.39 in 10.0 mi SW 16.1 mph - N/A   Partly Cloudy
7:54 PM 50.0 °F - 39.9 °F 68% 30.39 in 10.0 mi SSW 15.0 mph 20.7 mph N/A   Scattered Clouds
8:01 PM 50.0 °F - 39.2 °F 66% 30.39 in 10.0 mi SW 16.1 mph 21.9 mph N/A   Mostly Cloudy
8:11 PM 50.0 °F - 39.2 °F 66% 30.39 in 10.0 mi SSW 15.0 mph - N/A   Scattered Clouds
8:24 PM 48.2 °F - 39.2 °F 71% 30.40 in 10.0 mi SSW 13.8 mph 20.7 mph N/A   Mostly Cloudy
8:54 PM 48.9 °F - 39.9 °F 71% 30.40 in 10.0 mi SW 17.3 mph 20.7 mph N/A   Mostly Cloudy
9:54 PM 46.0 °F 41.0 °F 39.9 °F 79% 30.41 in 10.0 mi SW 10.4 mph - N/A   Overcast
10:54 PM 45.0 °F 38.9 °F 39.9 °F 82% 30.42 in 10.0 mi SSW 12.7 mph - N/A   Overcast
11:54 PM 44.1 °F 38.6 °F 39.9 °F 85% 30.43 in 10.0 mi SSW 10.4 mph - N/A   Overcast